Time,TemperatureF,DewpointF,PressureIn,WindDirection,WindDirectionDegrees,WindSpeedMPH,WindSpeedGustMPH,Humidity,HourlyPrecipIn,Conditions,Clouds,dailyrainin,SoftwareType,DateUTC
2013-04-26 00:00:00,52.2,26.1,29.88,South,188,10.0,19.0,36,0.00,,,0.00,VWS V14.01,2013-04-26 05:00:00,
2013-04-26 00:01:00,49.9,27.7,29.86,South,184,10.0,16.0,42,0.00,,,0.00,VWS V14.01,2013-04-26 05:01:00,
2013-04-26 00:06:00,49.6,28.6,29.86,South,181,8.0,16.0,44,0.00,,,0.00,VWS V14.01,2013-04-26 05:06:00,
2013-04-26 00:11:00,49.4,28.4,29.86,South,188,7.0,17.0,44,0.00,,,0.00,VWS V14.01,2013-04-26 05:11:00,
2013-04-26 00:15:00,51.6,26.2,29.86,South,184,13.0,16.0,37,0.00,,,0.00,VWS V14.01,2013-04-26 05:15:00,
2013-04-26 00:16:00,49.2,27.7,29.85,South,188,7.0,17.0,43,0.00,,,0.00,VWS V14.01,2013-04-26 05:16:00,
2013-04-26 00:21:00,48.9,28.5,29.85,South,188,10.0,13.0,45,0.00,,,0.00,VWS V14.01,2013-04-26 05:21:00,
2013-04-26 00:26:00,48.8,29.0,29.85,South,178,8.0,14.0,46,0.00,,,0.00,VWS V14.01,2013-04-26 05:26:00,
2013-04-26 00:30:00,51.1,27.0,29.86,South,191,13.0,18.0,39,0.00,,,0.00,VWS V14.01,2013-04-26 05:30:00,
2013-04-26 00:31:00,48.5,29.2,29.85,South,184,6.0,14.0,47,0.00,,,0.00,VWS V14.01,2013-04-26 05:31:00,
2013-04-26 00:36:00,48.3,29.5,29.85,South,181,8.0,14.0,48,0.00,,,0.00,VWS V14.01,2013-04-26 05:36:00,
2013-04-26 00:42:00,48.0,29.3,29.85,SSW,192,11.0,16.0,48,0.00,,,0.00,VWS V14.01,2013-04-26 05:42:00,
2013-04-26 00:45:00,50.5,27.1,29.87,SSW,193,12.0,19.0,40,0.00,,,0.00,VWS V14.01,2013-04-26 05:45:00,
2013-04-26 00:47:00,47.9,29.7,29.85,South,181,9.0,16.0,49,0.00,,,0.00,VWS V14.01,2013-04-26 05:47:00,
2013-04-26 00:52:00,47.9,29.7,29.85,SSW,193,8.0,14.0,49,0.00,,,0.00,VWS V14.01,2013-04-26 05:52:00,
2013-04-26 00:56:00,47.7,30.0,29.85,SSW,193,11.0,14.0,50,0.00,,,0.00,VWS V14.01,2013-04-26 05:56:00,
2013-04-26 01:00:00,49.8,27.1,29.86,SSW,193,16.0,16.0,41,0.00,,,0.00,VWS V14.01,2013-04-26 06:00:00,
2013-04-26 01:02:00,47.7,29.5,29.84,SSW,192,8.0,14.0,49,0.00,,,0.00,VWS V14.01,2013-04-26 06:02:00,
2013-04-26 01:07:00,47.7,30.5,29.84,South,169,7.0,12.0,51,0.00,,,0.00,VWS V14.01,2013-04-26 06:07:00,
2013-04-26 01:12:00,47.7,30.0,29.84,South,185,8.0,12.0,50,0.00,,,0.00,VWS V14.01,2013-04-26 06:12:00,
2013-04-26 01:15:00,49.1,27.6,29.85,South,171,8.0,17.0,43,0.00,,,0.00,VWS V14.01,2013-04-26 06:15:00,
2013-04-26 01:17:00,47.6,30.4,29.84,South,174,4.0,12.0,51,0.00,,,0.00,VWS V14.01,2013-04-26 06:17:00,
2013-04-26 01:22:00,47.7,30.5,29.84,South,178,7.0,12.0,51,0.00,,,0.00,VWS V14.01,2013-04-26 06:22:00,
2013-04-26 01:27:00,47.7,29.0,29.84,South,182,7.0,12.0,48,0.00,,,0.00,VWS V14.01,2013-04-26 06:27:00,
2013-04-26 01:30:00,48.5,29.2,29.85,SSW,195,13.0,14.0,47,0.00,,,0.00,VWS V14.01,2013-04-26 06:30:00,
2013-04-26 01:32:00,47.9,29.7,29.84,South,175,8.0,12.0,49,0.00,,,0.00,VWS V14.01,2013-04-26 06:32:00,
2013-04-26 01:37:00,48.0,28.8,29.84,South,191,5.0,14.0,47,0.00,,,0.00,VWS V14.01,2013-04-26 06:37:00,
2013-04-26 01:42:00,48.5,28.1,29.84,South,179,6.0,14.0,45,0.00,,,0.00,VWS V14.01,2013-04-26 06:42:00,
2013-04-26 01:45:00,47.9,29.7,29.85,South,182,11.0,16.0,49,0.00,,,0.00,VWS V14.01,2013-04-26 06:45:00,
2013-04-26 01:47:00,48.9,27.4,29.84,South,186,7.0,16.0,43,0.00,,,0.00,VWS V14.01,2013-04-26 06:47:00,
2013-04-26 01:52:00,48.9,28.0,29.84,South,179,7.0,15.0,44,0.00,,,0.00,VWS V14.01,2013-04-26 06:52:00,
2013-04-26 01:57:00,48.9,27.4,29.84,South,189,7.0,15.0,43,0.00,,,0.00,VWS V14.01,2013-04-26 06:57:00,
2013-04-26 02:00:00,47.7,30.0,29.84,SSW,193,8.0,14.0,50,0.00,,,0.00,VWS V14.01,2013-04-26 07:00:00,
2013-04-26 02:02:00,49.1,26.4,29.84,South,181,6.0,15.0,41,0.00,,,0.00,VWS V14.01,2013-04-26 07:02:00,
2013-04-26 02:07:00,49.2,27.1,29.84,SSW,193,10.0,15.0,42,0.00,,,0.00,VWS V14.01,2013-04-26 07:07:00,
2013-04-26 02:12:00,49.4,26.1,29.84,SSW,205,8.0,15.0,40,0.00,,,0.00,VWS V14.01,2013-04-26 07:12:00,
2013-04-26 02:15:00,47.6,29.4,29.84,South,179,7.0,12.0,49,0.00,,,0.00,VWS V14.01,2013-04-26 07:15:00,
2013-04-26 02:17:00,49.5,26.8,29.83,SSW,196,7.0,16.0,41,0.00,,,0.00,VWS V14.01,2013-04-26 07:17:00,
2013-04-26 02:22:00,49.5,26.2,29.83,SSW,195,13.0,14.0,40,0.00,,,0.00,VWS V14.01,2013-04-26 07:22:00,
2013-04-26 02:27:00,49.5,26.8,29.83,SSW,202,13.0,14.0,41,0.00,,,0.00,VWS V14.01,2013-04-26 07:27:00,
2013-04-26 02:30:00,47.9,29.7,29.84,South,181,7.0,12.0,49,0.00,,,0.00,VWS V14.01,2013-04-26 07:30:00,
2013-04-26 02:32:00,49.5,26.8,29.83,South,186,7.0,16.0,41,0.00,,,0.00,VWS V14.01,2013-04-26 07:32:00,
2013-04-26 02:37:00,49.6,26.3,29.83,SSW,198,5.0,14.0,40,0.00,,,0.00,VWS V14.01,2013-04-26 07:37:00,
2013-04-26 02:42:00,49.8,26.5,29.83,SSW,200,8.0,14.0,40,0.00,,,0.00,VWS V14.01,2013-04-26 07:42:00,
2013-04-26 02:45:00,48.9,26.8,29.84,South,175,7.0,16.0,42,0.00,,,0.00,VWS V14.01,2013-04-26 07:45:00,
2013-04-26 02:47:00,49.8,26.5,29.82,SSW,193,11.0,16.0,40,0.00,,,0.00,VWS V14.01,2013-04-26 07:47:00,
2013-04-26 02:52:00,49.9,27.1,29.82,SSW,199,12.0,17.0,41,0.00,,,0.00,VWS V14.01,2013-04-26 07:52:00,
2013-04-26 02:57:00,49.9,26.0,29.82,South,186,7.0,17.0,39,0.00,,,0.00,VWS V14.01,2013-04-26 07:57:00,
2013-04-26 03:00:00,49.1,28.1,29.84,South,186,7.0,15.0,44,0.00,,,0.00,VWS V14.01,2013-04-26 08:00:00,
2013-04-26 03:02:00,49.9,27.1,29.82,SSW,193,10.0,17.0,41,0.00,,,0.00,VWS V14.01,2013-04-26 08:02:00,
2013-04-26 03:07:00,50.1,26.1,29.82,SSW,196,12.0,17.0,39,0.00,,,0.00,VWS V14.01,2013-04-26 08:07:00,
2013-04-26 03:12:00,49.9,27.1,29.82,SSW,198,10.0,17.0,41,0.00,,,0.00,VWS V14.01,2013-04-26 08:12:00,
2013-04-26 03:15:00,49.5,27.4,29.83,SSW,196,7.0,16.0,42,0.00,,,0.00,VWS V14.01,2013-04-26 08:15:00,
2013-04-26 03:17:00,49.6,27.5,29.82,SSW,205,10.0,17.0,42,0.00,,,0.00,VWS V14.01,2013-04-26 08:17:00,
2013-04-26 03:22:00,49.4,26.7,29.82,SSW,193,12.0,13.0,41,0.00,,,0.00,VWS V14.01,2013-04-26 08:22:00,
2013-04-26 03:27:00,49.2,27.7,29.82,SSW,196,10.0,14.0,43,0.00,,,0.00,VWS V14.01,2013-04-26 08:27:00,
2013-04-26 03:30:00,49.6,26.9,29.83,SSW,205,12.0,16.0,41,0.00,,,0.00,VWS V14.01,2013-04-26 08:30:00,
2013-04-26 03:32:00,49.2,27.7,29.82,SSW,195,8.0,16.0,43,0.00,,,0.00,VWS V14.01,2013-04-26 08:32:00,
2013-04-26 03:37:00,49.4,28.4,29.82,SSW,213,11.0,17.0,44,0.00,,,0.00,VWS V14.01,2013-04-26 08:37:00,
2013-04-26 03:42:00,49.4,28.4,29.82,SSW,195,18.0,18.0,44,0.00,,,0.00,VWS V14.01,2013-04-26 08:42:00,
2013-04-26 03:45:00,49.8,25.9,29.82,South,191,12.0,16.0,39,0.00,,,0.00,VWS V14.01,2013-04-26 08:45:00,
2013-04-26 03:47:00,49.2,28.2,29.82,SSW,203,9.0,18.0,44,0.00,,,0.00,VWS V14.01,2013-04-26 08:47:00,
2013-04-26 03:52:00,49.1,27.0,29.82,SW,219,11.0,14.0,42,0.00,,,0.00,VWS V14.01,2013-04-26 08:52:00,
2013-04-26 03:57:00,49.1,27.6,29.82,SSW,202,12.0,16.0,43,0.00,,,0.00,VWS V14.01,2013-04-26 08:57:00,
2013-04-26 04:00:00,49.9,27.2,29.82,SSW,196,11.0,17.0,41,0.00,,,0.00,VWS V14.01,2013-04-26 09:00:00,
2013-04-26 04:02:00,49.1,28.1,29.82,SSW,198,12.0,16.0,44,0.00,,,0.00,VWS V14.01,2013-04-26 09:02:00,
2013-04-26 04:07:00,49.1,28.7,29.82,SSW,210,7.0,17.0,45,0.00,,,0.00,VWS V14.01,2013-04-26 09:07:00,
2013-04-26 04:12:00,48.9,28.5,29.82,SSW,198,7.0,17.0,45,0.00,,,0.00,VWS V14.01,2013-04-26 09:12:00,
2013-04-26 04:15:00,49.6,27.5,29.82,SSW,208,10.0,17.0,42,0.00,,,0.00,VWS V14.01,2013-04-26 09:15:00,
2013-04-26 04:17:00,49.2,28.2,29.83,SW,215,8.0,17.0,44,0.00,,,0.00,VWS V14.01,2013-04-26 09:17:00,
2013-04-26 04:22:00,49.2,28.2,29.83,SSW,203,9.0,11.0,44,0.00,,,0.00,VWS V14.01,2013-04-26 09:22:00,
2013-04-26 04:27:00,49.4,28.4,29.83,South,189,7.0,11.0,44,0.00,,,0.00,VWS V14.01,2013-04-26 09:27:00,
2013-04-26 04:30:00,49.2,27.1,29.82,SSW,209,12.0,16.0,42,0.00,,,0.00,VWS V14.01,2013-04-26 09:30:00,
2013-04-26 04:32:00,49.2,29.3,29.83,South,191,5.0,12.0,46,0.00,,,0.00,VWS V14.01,2013-04-26 09:32:00,
2013-04-26 04:37:00,49.1,28.7,29.83,SSW,200,6.0,11.0,45,0.00,,,0.00,VWS V14.01,2013-04-26 09:37:00,
2013-04-26 04:42:00,49.2,27.7,29.83,SSW,200,10.0,12.0,43,0.00,,,0.00,VWS V14.01,2013-04-26 09:42:00,
2013-04-26 04:45:00,49.2,28.2,29.82,SSW,209,11.0,18.0,44,0.00,,,0.00,VWS V14.01,2013-04-26 09:45:00,
2013-04-26 04:47:00,49.1,28.7,29.83,SSW,198,7.0,12.0,45,0.00,,,0.00,VWS V14.01,2013-04-26 09:47:00,
2013-04-26 04:52:00,48.9,29.0,29.83,SSW,196,7.0,12.0,46,0.00,,,0.00,VWS V14.01,2013-04-26 09:52:00,
2013-04-26 04:57:00,48.9,29.6,29.83,SSW,205,7.0,12.0,47,0.00,,,0.00,VWS V14.01,2013-04-26 09:57:00,
2013-04-26 05:00:00,49.1,28.1,29.82,SSW,199,12.0,16.0,44,0.00,,,0.00,VWS V14.01,2013-04-26 10:00:00,
2013-04-26 05:02:00,49.1,28.1,29.83,SSW,203,7.0,12.0,44,0.00,,,0.00,VWS V14.01,2013-04-26 10:02:00,
2013-04-26 05:07:00,49.2,29.3,29.83,SSW,193,9.0,10.0,46,0.00,,,0.00,VWS V14.01,2013-04-26 10:07:00,
2013-04-26 05:12:00,49.2,28.2,29.83,SSW,196,7.0,11.0,44,0.00,,,0.00,VWS V14.01,2013-04-26 10:12:00,
2013-04-26 05:15:00,49.2,27.7,29.83,SW,215,7.0,17.0,43,0.00,,,0.00,VWS V14.01,2013-04-26 10:15:00,
2013-04-26 05:17:00,49.5,28.0,29.83,SSW,209,10.0,11.0,43,0.00,,,0.00,VWS V14.01,2013-04-26 10:17:00,
2013-04-26 05:22:00,49.8,28.2,29.83,SW,215,8.0,12.0,43,0.00,,,0.00,VWS V14.01,2013-04-26 10:22:00,
2013-04-26 05:27:00,49.9,27.7,29.83,SW,224,8.0,12.0,42,0.00,,,0.00,VWS V14.01,2013-04-26 10:27:00,
2013-04-26 05:30:00,49.2,27.7,29.83,South,191,4.0,12.0,43,0.00,,,0.00,VWS V14.01,2013-04-26 10:30:00,
2013-04-26 05:32:00,50.2,28.6,29.83,SW,217,9.0,13.0,43,0.00,,,0.00,VWS V14.01,2013-04-26 10:32:00,
2013-04-26 05:37:00,50.2,27.4,29.83,SW,222,5.0,10.0,41,0.00,,,0.00,VWS V14.01,2013-04-26 10:37:00,
2013-04-26 05:42:00,49.9,28.3,29.83,SW,222,8.0,13.0,43,0.00,,,0.00,VWS V14.01,2013-04-26 10:42:00,
2013-04-26 05:45:00,49.1,28.7,29.83,SSW,198,7.0,12.0,45,0.00,,,0.00,VWS V14.01,2013-04-26 10:45:00,
2013-04-26 05:47:00,49.8,28.2,29.83,SW,216,10.0,13.0,43,0.00,,,0.00,VWS V14.01,2013-04-26 10:47:00,
2013-04-26 05:52:00,49.6,28.6,29.83,SW,227,4.0,12.0,44,0.00,,,0.00,VWS V14.01,2013-04-26 10:52:00,
2013-04-26 05:57:00,49.2,28.2,29.83,SW,230,6.0,12.0,44,0.00,,,0.00,VWS V14.01,2013-04-26 10:57:00,
2013-04-26 06:00:00,49.1,27.6,29.83,SSW,203,7.0,12.0,43,0.00,,,0.00,VWS V14.01,2013-04-26 11:00:00,
2013-04-26 06:02:00,49.2,28.8,29.84,WSW,246,5.0,12.0,45,0.00,,,0.00,VWS V14.01,2013-04-26 11:02:00,
2013-04-26 06:07:00,49.1,29.2,29.84,WSW,246,2.0,6.0,46,0.00,,,0.00,VWS V14.01,2013-04-26 11:07:00,
2013-04-26 06:12:00,48.9,28.5,29.84,WSW,247,5.0,6.0,45,0.00,,,0.00,VWS V14.01,2013-04-26 11:12:00,
2013-04-26 06:15:00,49.5,28.5,29.83,SSW,209,7.0,11.0,44,0.00,,,0.00,VWS V14.01,2013-04-26 11:15:00,
2013-04-26 06:17:00,48.3,28.5,29.85,WSW,250,4.0,7.0,46,0.00,,,0.00,VWS V14.01,2013-04-26 11:17:00,
2013-04-26 06:22:00,48.0,28.8,29.85,WSW,251,6.0,7.0,47,0.00,,,0.00,VWS V14.01,2013-04-26 11:22:00,
2013-04-26 06:27:00,47.9,29.2,29.85,WSW,239,5.0,8.0,48,0.00,,,0.00,VWS V14.01,2013-04-26 11:27:00,
2013-04-26 06:30:00,50.2,27.4,29.83,SSW,205,7.0,13.0,41,0.00,,,0.00,VWS V14.01,2013-04-26 11:30:00,
2013-04-26 06:32:00,47.6,29.4,29.86,WSW,241,7.0,8.0,49,0.00,,,0.00,VWS V14.01,2013-04-26 11:32:00,
2013-04-26 06:37:00,47.3,29.6,29.86,SW,233,7.0,9.0,50,0.00,,,0.00,VWS V14.01,2013-04-26 11:37:00,
2013-04-26 06:42:00,47.0,28.3,29.86,SW,236,3.0,9.0,48,0.00,,,0.00,VWS V14.01,2013-04-26 11:42:00,
2013-04-26 06:45:00,49.9,28.3,29.83,SW,220,11.0,13.0,43,0.00,,,0.00,VWS V14.01,2013-04-26 11:45:00,
2013-04-26 06:47:00,46.8,29.2,29.87,SW,236,2.0,9.0,50,0.00,,,0.00,VWS V14.01,2013-04-26 11:47:00,
2013-04-26 06:52:00,46.5,30.3,29.87,SW,236,7.0,10.0,53,0.00,,,0.00,VWS V14.01,2013-04-26 11:52:00,
2013-04-26 06:57:00,46.4,29.3,29.87,SW,234,5.0,10.0,51,0.00,,,0.00,VWS V14.01,2013-04-26 11:57:00,
2013-04-26 07:00:00,49.2,28.8,29.84,WSW,246,5.0,12.0,45,0.00,,,0.00,VWS V14.01,2013-04-26 12:00:00,
2013-04-26 07:02:00,46.0,28.9,29.87,SW,234,4.0,10.0,51,0.00,,,0.00,VWS V14.01,2013-04-26 12:02:00,
2013-04-26 07:07:00,45.8,29.2,29.87,SW,234,3.0,4.0,52,0.00,,,0.00,VWS V14.01,2013-04-26 12:07:00,
2013-04-26 07:12:00,46.0,29.4,29.87,SW,234,2.0,5.0,52,0.00,,,0.00,VWS V14.01,2013-04-26 12:12:00,
2013-04-26 07:15:00,48.3,28.5,29.85,WSW,251,3.0,7.0,46,0.00,,,0.00,VWS V14.01,2013-04-26 12:15:00,
2013-04-26 07:17:00,46.0,28.4,29.89,SW,236,3.0,5.0,50,0.00,,,0.00,VWS V14.01,2013-04-26 12:17:00,
2013-04-26 07:22:00,46.2,29.1,29.89,SW,236,2.0,5.0,51,0.00,,,0.00,VWS V14.01,2013-04-26 12:22:00,
2013-04-26 07:27:00,46.2,29.6,29.89,SW,236,2.0,5.0,52,0.00,,,0.00,VWS V14.01,2013-04-26 12:27:00,
2013-04-26 07:30:00,47.4,29.2,29.86,WSW,241,7.0,8.0,49,0.00,,,0.00,VWS V14.01,2013-04-26 12:30:00,
2013-04-26 07:32:00,46.4,29.8,29.89,SW,236,3.0,5.0,52,0.00,,,0.00,VWS V14.01,2013-04-26 12:32:00,
2013-04-26 07:37:00,46.1,30.4,29.89,SW,236,3.0,5.0,54,0.00,,,0.00,VWS V14.01,2013-04-26 12:37:00,
2013-04-26 07:42:00,46.0,29.4,29.89,SW,236,4.0,5.0,52,0.00,,,0.00,VWS V14.01,2013-04-26 12:42:00,
2013-04-26 07:45:00,46.8,29.2,29.87,SW,236,0.0,9.0,50,0.00,,,0.00,VWS V14.01,2013-04-26 12:45:00,
2013-04-26 07:47:00,46.1,29.5,29.90,SW,236,2.0,5.0,52,0.00,,,0.00,VWS V14.01,2013-04-26 12:47:00,
2013-04-26 07:52:00,46.1,30.4,29.90,SW,236,5.0,5.0,54,0.00,,,0.00,VWS V14.01,2013-04-26 12:52:00,
2013-04-26 07:57:00,46.4,29.8,29.90,SW,236,3.0,5.0,52,0.00,,,0.00,VWS V14.01,2013-04-26 12:57:00,
2013-04-26 08:00:00,46.0,29.4,29.87,SW,234,2.0,10.0,52,0.00,,,0.00,VWS V14.01,2013-04-26 13:00:00,
2013-04-26 08:02:00,46.8,30.1,29.90,SW,236,2.0,5.0,52,0.00,,,0.00,VWS V14.01,2013-04-26 13:02:00,
2013-04-26 08:07:00,47.3,30.6,29.90,SW,236,2.0,5.0,52,0.00,,,0.00,VWS V14.01,2013-04-26 13:07:00,
2013-04-26 08:12:00,47.6,30.9,29.90,SW,236,2.0,5.0,52,0.00,,,0.00,VWS V14.01,2013-04-26 13:12:00,
2013-04-26 08:15:00,46.0,28.4,29.89,SW,236,4.0,5.0,50,0.00,,,0.00,VWS V14.01,2013-04-26 13:15:00,
2013-04-26 08:17:00,47.9,31.1,29.91,SW,236,2.0,5.0,52,0.00,,,0.00,VWS V14.01,2013-04-26 13:17:00,
2013-04-26 08:22:00,48.3,31.0,29.91,SW,236,1.0,2.0,51,0.00,,,0.00,VWS V14.01,2013-04-26 13:22:00,
2013-04-26 08:27:00,49.4,30.0,29.91,SW,236,3.0,6.0,47,0.00,,,0.00,VWS V14.01,2013-04-26 13:27:00,
2013-04-26 08:30:00,46.4,29.8,29.89,SW,236,3.0,5.0,52,0.00,,,0.00,VWS V14.01,2013-04-26 13:30:00,
2013-04-26 08:32:00,50.5,31.0,29.91,WSW,237,5.0,6.0,47,0.00,,,0.00,VWS V14.01,2013-04-26 13:32:00,
2013-04-26 08:37:00,51.4,31.3,29.91,WSW,239,3.0,5.0,46,0.00,,,0.00,VWS V14.01,2013-04-26 13:37:00,
2013-04-26 08:42:00,52.0,31.3,29.91,WSW,239,5.0,6.0,45,0.00,,,0.00,VWS V14.01,2013-04-26 13:42:00,
2013-04-26 08:45:00,46.1,29.9,29.90,SW,236,5.0,5.0,53,0.00,,,0.00,VWS V14.01,2013-04-26 13:45:00,
2013-04-26 08:47:00,52.3,29.9,29.90,WSW,239,5.0,7.0,42,0.00,,,0.00,VWS V14.01,2013-04-26 13:47:00,
2013-04-26 08:52:00,52.8,30.9,29.90,WSW,240,2.0,5.0,43,0.00,,,0.00,VWS V14.01,2013-04-26 13:52:00,
2013-04-26 08:57:00,53.1,31.8,29.90,WSW,240,2.0,5.0,44,0.00,,,0.00,VWS V14.01,2013-04-26 13:57:00,
2013-04-26 09:00:00,46.8,30.1,29.90,SW,236,2.0,5.0,52,0.00,,,0.00,VWS V14.01,2013-04-26 14:00:00,
2013-04-26 09:02:00,53.6,31.1,29.90,WSW,240,4.0,5.0,42,0.00,,,0.00,VWS V14.01,2013-04-26 14:02:00,
2013-04-26 09:07:00,54.2,29.2,29.90,WSW,244,9.0,9.0,38,0.00,,,0.00,VWS V14.01,2013-04-26 14:07:00,
2013-04-26 09:12:00,54.5,30.1,29.90,WSW,247,8.0,9.0,39,0.00,,,0.00,VWS V14.01,2013-04-26 14:12:00,
2013-04-26 09:15:00,47.9,31.1,29.91,SW,236,1.0,5.0,52,0.00,,,0.00,VWS V14.01,2013-04-26 14:15:00,
2013-04-26 09:17:00,54.7,30.2,29.91,WSW,246,5.0,11.0,39,0.00,,,0.00,VWS V14.01,2013-04-26 14:17:00,
2013-04-26 09:22:00,55.0,29.2,29.91,WSW,246,8.0,11.0,37,0.00,,,0.00,VWS V14.01,2013-04-26 14:22:00,
2013-04-26 09:27:00,55.3,30.1,29.91,WSW,244,10.0,11.0,38,0.00,,,0.00,VWS V14.01,2013-04-26 14:27:00,
2013-04-26 09:30:00,50.7,30.1,29.91,WSW,237,5.0,6.0,45,0.00,,,0.00,VWS V14.01,2013-04-26 14:30:00,
2013-04-26 09:32:00,55.9,28.7,29.91,WSW,244,7.0,11.0,35,0.00,,,0.00,VWS V14.01,2013-04-26 14:32:00,
2013-04-26 09:37:00,56.2,30.3,29.91,SW,233,10.0,11.0,37,0.00,,,0.00,VWS V14.01,2013-04-26 14:37:00,
2013-04-26 09:42:00,56.6,29.3,29.91,WSW,241,2.0,11.0,35,0.00,,,0.00,VWS V14.01,2013-04-26 14:42:00,
2013-04-26 09:45:00,52.3,29.3,29.90,WSW,239,5.0,7.0,41,0.00,,,0.00,VWS V14.01,2013-04-26 14:45:00,
2013-04-26 09:47:00,57.2,30.5,29.91,WSW,253,7.0,13.0,36,0.00,,,0.00,VWS V14.01,2013-04-26 14:47:00,
2013-04-26 09:52:00,57.5,30.1,29.91,WSW,246,2.0,10.0,35,0.00,,,0.00,VWS V14.01,2013-04-26 14:52:00,
2013-04-26 09:57:00,58.0,31.2,29.91,WSW,241,8.0,10.0,36,0.00,,,0.00,VWS V14.01,2013-04-26 14:57:00,
2013-04-26 10:00:00,53.6,29.9,29.90,WSW,240,5.0,5.0,40,0.00,,,0.00,VWS V14.01,2013-04-26 15:00:00,
2013-04-26 10:02:00,58.4,30.2,29.91,WSW,251,2.0,10.0,34,0.00,,,0.00,VWS V14.01,2013-04-26 15:02:00,
2013-04-26 10:07:00,58.7,31.8,29.91,WSW,250,3.0,7.0,36,0.00,,,0.00,VWS V14.01,2013-04-26 15:07:00,
2013-04-26 10:12:00,59.2,30.9,29.91,WSW,248,1.0,9.0,34,0.00,,,0.00,VWS V14.01,2013-04-26 15:12:00,
2013-04-26 10:15:00,54.7,30.2,29.91,WSW,246,5.0,11.0,39,0.00,,,0.00,VWS V14.01,2013-04-26 15:15:00,
2013-04-26 10:17:00,59.5,30.4,29.91,WNW,284,1.0,9.0,33,0.00,,,0.00,VWS V14.01,2013-04-26 15:17:00,
2013-04-26 10:22:00,59.9,31.5,29.91,West,270,2.0,5.0,34,0.00,,,0.00,VWS V14.01,2013-04-26 15:22:00,
2013-04-26 10:27:00,60.7,31.5,29.91,West,270,2.0,5.0,33,0.00,,,0.00,VWS V14.01,2013-04-26 15:27:00,
2013-04-26 10:30:00,55.9,29.4,29.91,WSW,244,8.0,11.0,36,0.00,,,0.00,VWS V14.01,2013-04-26 15:30:00,
2013-04-26 10:32:00,61.0,31.7,29.91,West,270,0.0,5.0,33,0.00,,,0.00,VWS V14.01,2013-04-26 15:32:00,
2013-04-26 10:37:00,61.2,31.1,29.91,WNW,296,2.0,7.0,32,0.00,,,0.00,VWS V14.01,2013-04-26 15:37:00,
2013-04-26 10:42:00,61.3,34.8,29.91,NNW,330,2.0,7.0,37,0.00,,,0.00,VWS V14.01,2013-04-26 15:42:00,
2013-04-26 10:45:00,57.2,30.5,29.91,WSW,253,7.0,13.0,36,0.00,,,0.00,VWS V14.01,2013-04-26 15:45:00,
2013-04-26 10:47:00,61.0,32.5,29.91,North,354,5.0,7.0,34,0.00,,,0.00,VWS V14.01,2013-04-26 15:47:00,
2013-04-26 10:52:00,61.2,31.9,29.91,North,356,8.0,9.0,33,0.00,,,0.00,VWS V14.01,2013-04-26 15:52:00,
2013-04-26 10:57:00,61.0,32.5,29.91,North,359,10.0,11.0,34,0.00,,,0.00,VWS V14.01,2013-04-26 15:57:00,
2013-04-26 11:00:00,58.4,30.2,29.91,WSW,251,2.0,10.0,34,0.00,,,0.00,VWS V14.01,2013-04-26 16:00:00,
2013-04-26 11:02:00,60.9,30.1,29.92,North,356,7.0,11.0,31,0.00,,,0.00,VWS V14.01,2013-04-26 16:02:00,
2013-04-26 11:07:00,61.2,32.6,29.92,NNE,21,2.0,8.0,34,0.00,,,0.00,VWS V14.01,2013-04-26 16:07:00,
2013-04-26 11:12:00,61.2,34.1,29.92,NNE,28,7.0,8.0,36,0.00,,,0.00,VWS V14.01,2013-04-26 16:12:00,
2013-04-26 11:15:00,59.5,30.4,29.91,WNW,284,1.0,9.0,33,0.00,,,0.00,VWS V14.01,2013-04-26 16:15:00,
2013-04-26 11:17:00,61.3,34.8,29.92,North,356,7.0,9.0,37,0.00,,,0.00,VWS V14.01,2013-04-26 16:17:00,
2013-04-26 11:22:00,61.2,35.4,29.92,North,356,7.0,12.0,38,0.00,,,0.00,VWS V14.01,2013-04-26 16:22:00,
2013-04-26 11:27:00,61.5,35.0,29.92,NNE,23,8.0,12.0,37,0.00,,,0.00,VWS V14.01,2013-04-26 16:27:00,
2013-04-26 11:30:00,61.0,31.7,29.91,West,270,0.0,5.0,33,0.00,,,0.00,VWS V14.01,2013-04-26 16:30:00,
2013-04-26 11:32:00,61.6,35.8,29.93,North,3,6.0,12.0,38,0.00,,,0.00,VWS V14.01,2013-04-26 16:32:00,
2013-04-26 11:37:00,62.6,33.1,29.93,NNE,24,10.0,12.0,33,0.00,,,0.00,VWS V14.01,2013-04-26 16:37:00,
2013-04-26 11:42:00,63.2,31.3,29.93,NNE,25,7.0,19.0,30,0.00,,,0.00,VWS V14.01,2013-04-26 16:42:00,
2013-04-26 11:45:00,61.0,33.9,29.91,North,354,7.0,7.0,36,0.00,,,0.00,VWS V14.01,2013-04-26 16:45:00,
2013-04-26 11:47:00,62.7,36.8,29.93,NNE,28,7.0,19.0,38,0.00,,,0.00,VWS V14.01,2013-04-26 16:47:00,
2013-04-26 11:52:00,63.1,37.1,29.93,NNE,28,7.0,11.0,38,0.00,,,0.00,VWS V14.01,2013-04-26 16:52:00,
2013-04-26 11:57:00,64.2,33.8,29.93,NNE,28,7.0,11.0,32,0.00,,,0.00,VWS V14.01,2013-04-26 16:57:00,
2013-04-26 12:00:00,60.9,33.8,29.92,North,356,8.0,11.0,36,0.00,,,0.00,VWS V14.01,2013-04-26 17:00:00,
2013-04-26 12:02:00,64.8,31.0,29.92,NE,49,13.0,18.0,28,0.00,,,0.00,VWS V14.01,2013-04-26 17:02:00,
2013-04-26 12:07:00,64.5,30.7,29.92,NNE,32,14.0,19.0,28,0.00,,,0.00,VWS V14.01,2013-04-26 17:07:00,
2013-04-26 12:12:00,65.3,29.6,29.92,NE,47,18.0,24.0,26,0.00,,,0.00,VWS V14.01,2013-04-26 17:12:00,
2013-04-26 12:15:00,61.3,34.8,29.92,North,356,7.0,9.0,37,0.00,,,0.00,VWS V14.01,2013-04-26 17:15:00,
2013-04-26 12:17:00,65.5,27.8,29.92,NE,40,11.0,24.0,24,0.00,,,0.00,VWS V14.01,2013-04-26 17:17:00,
2013-04-26 12:22:00,66.0,27.2,29.92,NNE,31,19.0,24.0,23,0.00,,,0.00,VWS V14.01,2013-04-26 17:22:00,
2013-04-26 12:27:00,66.1,27.2,29.92,NE,38,18.0,24.0,23,0.00,,,0.00,VWS V14.01,2013-04-26 17:27:00,
2013-04-26 12:30:00,61.6,35.8,29.93,North,3,8.0,12.0,38,0.00,,,0.00,VWS V14.01,2013-04-26 17:30:00,
2013-04-26 12:32:00,65.5,28.8,29.93,NE,48,19.0,24.0,25,0.00,,,0.00,VWS V14.01,2013-04-26 17:32:00,
2013-04-26 12:37:00,66.6,29.7,29.93,NE,41,19.0,27.0,25,0.00,,,0.00,VWS V14.01,2013-04-26 17:37:00,
2013-04-26 12:42:00,66.1,26.2,29.93,NE,48,18.0,27.0,22,0.00,,,0.00,VWS V14.01,2013-04-26 17:42:00,
2013-04-26 12:45:00,62.7,35.4,29.93,NNE,28,7.0,19.0,36,0.00,,,0.00,VWS V14.01,2013-04-26 17:45:00,
2013-04-26 12:47:00,66.3,24.1,29.93,NE,44,13.0,27.0,20,0.00,,,0.00,VWS V14.01,2013-04-26 17:47:00,
2013-04-26 12:52:00,65.8,29.0,29.93,NE,38,12.0,18.0,25,0.00,,,0.00,VWS V14.01,2013-04-26 17:52:00,
2013-04-26 12:57:00,66.3,26.4,29.93,NNE,30,14.0,18.0,22,0.00,,,0.00,VWS V14.01,2013-04-26 17:57:00,
2013-04-26 13:00:00,64.8,31.0,29.92,NE,41,12.0,18.0,28,0.00,,,0.00,VWS V14.01,2013-04-26 18:00:00,
2013-04-26 13:02:00,66.8,24.5,29.93,NNE,32,16.0,16.0,20,0.00,,,0.00,VWS V14.01,2013-04-26 18:02:00,
2013-04-26 13:07:00,66.6,27.7,29.93,NE,35,10.0,21.0,23,0.00,,,0.00,VWS V14.01,2013-04-26 18:07:00,
2013-04-26 13:12:00,66.4,28.5,29.93,NE,52,17.0,22.0,24,0.00,,,0.00,VWS V14.01,2013-04-26 18:12:00,
2013-04-26 13:15:00,65.5,27.8,29.92,NE,40,11.0,24.0,24,0.00,,,0.00,VWS V14.01,2013-04-26 18:15:00,
2013-04-26 13:17:00,66.9,29.0,29.92,NE,34,14.0,22.0,24,0.00,,,0.00,VWS V14.01,2013-04-26 18:17:00,
2013-04-26 13:22:00,66.6,29.7,29.92,NNE,28,17.0,17.0,25,0.00,,,0.00,VWS V14.01,2013-04-26 18:22:00,
2013-04-26 13:27:00,66.6,25.5,29.92,NE,34,10.0,20.0,21,0.00,,,0.00,VWS V14.01,2013-04-26 18:27:00,
2013-04-26 13:30:00,65.5,28.8,29.93,NE,48,19.0,24.0,25,0.00,,,0.00,VWS V14.01,2013-04-26 18:30:00,
2013-04-26 13:32:00,66.0,28.2,29.92,NE,45,17.0,20.0,24,0.00,,,0.00,VWS V14.01,2013-04-26 18:32:00,
2013-04-26 13:37:00,66.6,25.5,29.92,NE,38,12.0,20.0,21,0.00,,,0.00,VWS V14.01,2013-04-26 18:37:00,
2013-04-26 13:42:00,66.9,26.9,29.92,NNE,25,17.0,24.0,22,0.00,,,0.00,VWS V14.01,2013-04-26 18:42:00,
2013-04-26 13:45:00,66.3,24.1,29.93,NE,44,13.0,27.0,20,0.00,,,0.00,VWS V14.01,2013-04-26 18:45:00,
2013-04-26 13:47:00,67.4,25.0,29.92,NE,49,17.0,24.0,20,0.00,,,0.00,VWS V14.01,2013-04-26 18:47:00,
2013-04-26 13:52:00,67.8,25.3,29.92,NNE,32,16.0,20.0,20,0.00,,,0.00,VWS V14.01,2013-04-26 18:52:00,
2013-04-26 13:57:00,67.4,26.1,29.92,NE,38,12.0,24.0,21,0.00,,,0.00,VWS V14.01,2013-04-26 18:57:00,
2013-04-26 14:00:00,66.8,24.5,29.93,NE,37,12.0,21.0,20,0.00,,,0.00,VWS V14.01,2013-04-26 19:00:00,
2013-04-26 14:02:00,67.6,25.1,29.92,NE,35,10.0,24.0,20,0.00,,,0.00,VWS V14.01,2013-04-26 19:02:00,
2013-04-26 14:07:00,68.3,23.2,29.92,NNE,30,12.0,18.0,18,0.00,,,0.00,VWS V14.01,2013-04-26 19:07:00,
2013-04-26 14:12:00,67.6,26.3,29.92,NE,42,17.0,19.0,21,0.00,,,0.00,VWS V14.01,2013-04-26 19:12:00,
2013-04-26 14:15:00,66.9,29.0,29.92,NE,34,14.0,22.0,24,0.00,,,0.00,VWS V14.01,2013-04-26 19:15:00,
2013-04-26 14:17:00,67.4,28.4,29.92,NNE,20,8.0,19.0,23,0.00,,,0.00,VWS V14.01,2013-04-26 19:17:00,
2013-04-26 14:22:00,66.8,26.8,29.92,NNE,27,16.0,18.0,22,0.00,,,0.00,VWS V14.01,2013-04-26 19:22:00,
2013-04-26 14:27:00,68.4,23.3,29.92,NE,34,13.0,18.0,18,0.00,,,0.00,VWS V14.01,2013-04-26 19:27:00,
2013-04-26 14:30:00,66.0,28.2,29.92,NE,45,17.0,20.0,24,0.00,,,0.00,VWS V14.01,2013-04-26 19:30:00,
2013-04-26 14:32:00,67.4,28.4,29.93,NNE,32,6.0,18.0,23,0.00,,,0.00,VWS V14.01,2013-04-26 19:32:00,
2013-04-26 14:37:00,68.1,24.3,29.93,NE,35,17.0,18.0,19,0.00,,,0.00,VWS V14.01,2013-04-26 19:37:00,
2013-04-26 14:42:00,67.9,26.6,29.93,NE,41,9.0,24.0,21,0.00,,,0.00,VWS V14.01,2013-04-26 19:42:00,
2013-04-26 14:45:00,67.4,25.0,29.92,NE,47,14.0,24.0,20,0.00,,,0.00,VWS V14.01,2013-04-26 19:45:00,
2013-04-26 14:47:00,68.1,23.0,29.92,NE,52,12.0,24.0,18,0.00,,,0.00,VWS V14.01,2013-04-26 19:47:00,
2013-04-26 14:52:00,68.6,24.7,29.92,NNE,28,10.0,17.0,19,0.00,,,0.00,VWS V14.01,2013-04-26 19:52:00,
2013-04-26 14:57:00,67.6,26.3,29.92,NE,40,16.0,20.0,21,0.00,,,0.00,VWS V14.01,2013-04-26 19:57:00,
2013-04-26 15:00:00,67.6,27.4,29.92,NNE,25,12.0,24.0,22,0.00,,,0.00,VWS V14.01,2013-04-26 20:00:00,
2013-04-26 15:02:00,68.1,27.9,29.92,NNE,16,11.0,21.0,22,0.00,,,0.00,VWS V14.01,2013-04-26 20:02:00,
2013-04-26 15:07:00,67.6,29.6,29.92,NNE,31,13.0,16.0,24,0.00,,,0.00,VWS V14.01,2013-04-26 20:07:00,
2013-04-26 15:12:00,67.8,27.6,29.92,NE,45,12.0,17.0,22,0.00,,,0.00,VWS V14.01,2013-04-26 20:12:00,
2013-04-26 15:15:00,67.4,27.3,29.92,NE,37,11.0,19.0,22,0.00,,,0.00,VWS V14.01,2013-04-26 20:15:00,
2013-04-26 15:17:00,68.8,22.2,29.93,NE,51,12.0,12.0,17,0.00,,,0.00,VWS V14.01,2013-04-26 20:17:00,
2013-04-26 15:22:00,68.6,20.6,29.93,NE,38,10.0,20.0,16,0.00,,,0.00,VWS V14.01,2013-04-26 20:22:00,
2013-04-26 15:27:00,68.4,24.6,29.93,NE,38,12.0,20.0,19,0.00,,,0.00,VWS V14.01,2013-04-26 20:27:00,
2013-04-26 15:30:00,67.4,28.4,29.93,NNE,32,6.0,18.0,23,0.00,,,0.00,VWS V14.01,2013-04-26 20:30:00,
2013-04-26 15:32:00,67.6,26.3,29.93,NE,40,10.0,21.0,21,0.00,,,0.00,VWS V14.01,2013-04-26 20:32:00,
2013-04-26 15:37:00,67.6,29.6,29.93,NE,41,10.0,19.0,24,0.00,,,0.00,VWS V14.01,2013-04-26 20:37:00,
2013-04-26 15:42:00,68.4,25.8,29.93,NE,35,13.0,19.0,20,0.00,,,0.00,VWS V14.01,2013-04-26 20:42:00,
2013-04-26 15:45:00,68.1,23.0,29.92,NE,52,12.0,24.0,18,0.00,,,0.00,VWS V14.01,2013-04-26 20:45:00,
2013-04-26 15:47:00,68.8,26.1,29.93,NNE,24,8.0,19.0,20,0.00,,,0.00,VWS V14.01,2013-04-26 20:47:00,
2013-04-26 15:52:00,69.4,24.1,29.93,NNE,28,18.0,19.0,18,0.00,,,0.00,VWS V14.01,2013-04-26 20:52:00,
2013-04-26 15:57:00,67.8,30.7,29.93,NE,55,11.0,19.0,25,0.00,,,0.00,VWS V14.01,2013-04-26 20:57:00,
2013-04-26 16:00:00,68.1,27.9,29.92,NNE,16,11.0,21.0,22,0.00,,,0.00,VWS V14.01,2013-04-26 21:00:00,
2013-04-26 16:02:00,67.4,29.4,29.93,NNE,21,11.0,19.0,24,0.00,,,0.00,VWS V14.01,2013-04-26 21:02:00,
2013-04-26 16:07:00,68.9,26.2,29.93,NNE,28,12.0,17.0,20,0.00,,,0.00,VWS V14.01,2013-04-26 21:07:00,
2013-04-26 16:12:00,68.4,28.1,29.93,NE,34,13.0,19.0,22,0.00,,,0.00,VWS V14.01,2013-04-26 21:12:00,
2013-04-26 16:15:00,68.6,22.1,29.93,NE,44,11.0,21.0,17,0.00,,,0.00,VWS V14.01,2013-04-26 21:15:00,
2013-04-26 16:17:00,68.1,27.9,29.93,NE,40,12.0,20.0,22,0.00,,,0.00,VWS V14.01,2013-04-26 21:17:00,
2013-04-26 16:22:00,68.9,26.2,29.93,NE,38,10.0,16.0,20,0.00,,,0.00,VWS V14.01,2013-04-26 21:22:00,
2013-04-26 16:27:00,68.3,29.1,29.93,NNE,18,7.0,17.0,23,0.00,,,0.00,VWS V14.01,2013-04-26 21:27:00,
2013-04-26 16:30:00,67.6,26.3,29.93,NE,40,10.0,21.0,21,0.00,,,0.00,VWS V14.01,2013-04-26 21:30:00,
2013-04-26 16:32:00,67.9,25.4,29.93,NNE,16,6.0,8.0,20,0.00,,,0.00,VWS V14.01,2013-04-26 21:32:00,
2013-04-26 16:37:00,67.3,30.3,29.93,NE,37,10.0,16.0,25,0.00,,,0.00,VWS V14.01,2013-04-26 21:37:00,
2013-04-26 16:42:00,67.4,30.4,29.93,NE,40,14.0,17.0,25,0.00,,,0.00,VWS V14.01,2013-04-26 21:42:00,
2013-04-26 16:45:00,68.8,26.1,29.93,NNE,24,8.0,19.0,20,0.00,,,0.00,VWS V14.01,2013-04-26 21:45:00,
2013-04-26 16:47:00,68.1,23.0,29.93,NE,52,7.0,8.0,18,0.00,,,0.00,VWS V14.01,2013-04-26 21:47:00,
2013-04-26 16:52:00,68.6,28.3,29.93,NE,42,10.0,22.0,22,0.00,,,0.00,VWS V14.01,2013-04-26 21:52:00,
2013-04-26 16:57:00,68.3,25.7,29.93,NE,37,10.0,26.0,20,0.00,,,0.00,VWS V14.01,2013-04-26 21:57:00,
2013-04-26 17:00:00,67.4,29.4,29.93,NNE,21,11.0,19.0,24,0.00,,,0.00,VWS V14.01,2013-04-26 22:00:00,
2013-04-26 17:02:00,68.3,25.7,29.94,NE,55,16.0,20.0,20,0.00,,,0.00,VWS V14.01,2013-04-26 22:02:00,
2013-04-26 17:07:00,67.9,27.7,29.94,NE,48,7.0,21.0,22,0.00,,,0.00,VWS V14.01,2013-04-26 22:07:00,
2013-04-26 17:12:00,66.8,29.9,29.94,NE,37,10.0,21.0,25,0.00,,,0.00,VWS V14.01,2013-04-26 22:12:00,
2013-04-26 17:15:00,68.1,27.9,29.93,NE,40,12.0,20.0,22,0.00,,,0.00,VWS V14.01,2013-04-26 22:15:00,
2013-04-26 17:17:00,67.4,28.4,29.94,NE,52,7.0,7.0,23,0.00,,,0.00,VWS V14.01,2013-04-26 22:17:00,
2013-04-26 17:22:00,67.8,27.6,29.94,NE,37,11.0,17.0,22,0.00,,,0.00,VWS V14.01,2013-04-26 22:22:00,
2013-04-26 17:27:00,67.3,28.3,29.94,NE,54,7.0,17.0,23,0.00,,,0.00,VWS V14.01,2013-04-26 22:27:00,
2013-04-26 17:30:00,67.8,25.3,29.93,NNE,17,7.0,17.0,20,0.00,,,0.00,VWS V14.01,2013-04-26 22:30:00,
2013-04-26 17:32:00,66.9,29.0,29.94,NE,54,10.0,11.0,24,0.00,,,0.00,VWS V14.01,2013-04-26 22:32:00,
2013-04-26 17:37:00,68.3,25.7,29.94,NE,40,7.0,18.0,20,0.00,,,0.00,VWS V14.01,2013-04-26 22:37:00,
2013-04-26 17:42:00,67.8,28.7,29.94,NNE,31,7.0,18.0,23,0.00,,,0.00,VWS V14.01,2013-04-26 22:42:00,
2013-04-26 17:45:00,68.3,23.2,29.93,NE,52,8.0,21.0,18,0.00,,,0.00,VWS V14.01,2013-04-26 22:45:00,
2013-04-26 17:47:00,68.1,25.5,29.94,NE,37,10.0,10.0,20,0.00,,,0.00,VWS V14.01,2013-04-26 22:47:00,
2013-04-26 17:52:00,66.9,31.9,29.94,NE,35,9.0,12.0,27,0.00,,,0.00,VWS V14.01,2013-04-26 22:52:00,
2013-04-26 17:57:00,67.1,27.0,29.94,NNE,32,14.0,19.0,22,0.00,,,0.00,VWS V14.01,2013-04-26 22:57:00,
2013-04-26 18:00:00,68.3,25.7,29.94,NNE,30,20.0,26.0,20,0.00,,,0.00,VWS V14.01,2013-04-26 23:00:00,
2013-04-26 18:02:00,67.3,30.3,29.94,NE,37,10.0,11.0,25,0.00,,,0.00,VWS V14.01,2013-04-26 23:02:00,
2013-04-26 18:07:00,66.6,30.7,29.94,NE,55,10.0,12.0,26,0.00,,,0.00,VWS V14.01,2013-04-26 23:07:00,
2013-04-26 18:12:00,66.1,31.2,29.94,NE,51,7.0,12.0,27,0.00,,,0.00,VWS V14.01,2013-04-26 23:12:00,
2013-04-26 18:15:00,67.4,28.4,29.94,NE,52,5.0,21.0,23,0.00,,,0.00,VWS V14.01,2013-04-26 23:15:00,
2013-04-26 18:17:00,66.9,26.9,29.95,NNE,32,15.0,16.0,22,0.00,,,0.00,VWS V14.01,2013-04-26 23:17:00,
2013-04-26 18:22:00,66.4,31.4,29.95,NE,40,12.0,16.0,27,0.00,,,0.00,VWS V14.01,2013-04-26 23:22:00,
2013-04-26 18:27:00,67.3,27.2,29.95,NNE,25,10.0,19.0,22,0.00,,,0.00,VWS V14.01,2013-04-26 23:27:00,
2013-04-26 18:30:00,66.9,29.0,29.94,NE,51,11.0,18.0,24,0.00,,,0.00,VWS V14.01,2013-04-26 23:30:00,
2013-04-26 18:32:00,66.6,29.7,29.96,NE,34,10.0,10.0,25,0.00,,,0.00,VWS V14.01,2013-04-26 23:32:00,
2013-04-26 18:37:00,66.6,30.7,29.96,NE,42,9.0,12.0,26,0.00,,,0.00,VWS V14.01,2013-04-26 23:37:00,
2013-04-26 18:42:00,66.0,31.1,29.96,NE,56,7.0,12.0,27,0.00,,,0.00,VWS V14.01,2013-04-26 23:42:00,
2013-04-26 18:45:00,68.3,25.7,29.94,NE,41,10.0,18.0,20,0.00,,,0.00,VWS V14.01,2013-04-26 23:45:00,
2013-04-26 18:47:00,66.9,27.9,29.97,NE,34,11.0,11.0,23,0.00,,,0.00,VWS V14.01,2013-04-26 23:47:00,
2013-04-26 18:52:00,66.9,27.9,29.97,NE,40,13.0,16.0,23,0.00,,,0.00,VWS V14.01,2013-04-26 23:52:00,
2013-04-26 19:00:00,67.3,30.3,29.94,NE,41,10.0,20.0,25,0.00,,,0.00,VWS V14.01,2013-04-27 00:00:00,
2013-04-26 19:05:00,66.0,29.2,29.97,NE,49,7.0,13.0,25,0.00,,,0.00,VWS V14.01,2013-04-27 00:05:00,
2013-04-26 19:10:00,65.8,29.0,29.97,NE,54,7.0,13.0,25,0.00,,,0.00,VWS V14.01,2013-04-27 00:10:00,
2013-04-26 19:15:00,65.2,30.4,29.97,NE,55,5.0,13.0,27,0.00,,,0.00,VWS V14.01,2013-04-27 00:15:00,
2013-04-26 19:20:00,64.7,32.6,29.97,ENE,61,6.0,7.0,30,0.00,,,0.00,VWS V14.01,2013-04-27 00:20:00,
2013-04-26 19:25:00,64.7,30.9,29.97,NE,40,5.0,8.0,28,0.00,,,0.00,VWS V14.01,2013-04-27 00:25:00,
2013-04-26 19:30:00,65.0,29.3,29.97,NE,38,6.0,11.0,26,0.00,,,0.00,VWS V14.01,2013-04-27 00:30:00,
2013-04-26 19:35:00,64.7,31.7,29.98,NE,41,5.0,12.0,29,0.00,,,0.00,VWS V14.01,2013-04-27 00:35:00,
2013-04-26 19:40:00,64.5,29.8,29.98,NE,54,5.0,12.0,27,0.00,,,0.00,VWS V14.01,2013-04-27 00:40:00,
2013-04-26 19:45:00,63.9,30.2,29.98,ENE,61,6.0,12.0,28,0.00,,,0.00,VWS V14.01,2013-04-27 00:45:00,
2013-04-26 19:50:00,64.0,30.3,29.99,ENE,59,6.0,10.0,28,0.00,,,0.00,VWS V14.01,2013-04-27 00:50:00,
2013-04-26 19:55:00,63.4,32.3,29.99,ENE,59,5.0,10.0,31,0.00,,,0.00,VWS V14.01,2013-04-27 00:55:00,
2013-04-26 20:00:00,63.2,28.7,29.99,ENE,59,4.0,10.0,27,0.00,,,0.00,VWS V14.01,2013-04-27 01:00:00,
2013-04-26 20:05:00,62.6,33.9,29.99,ENE,59,5.0,7.0,34,0.00,,,0.00,VWS V14.01,2013-04-27 01:05:00,
2013-04-26 20:10:00,62.4,33.7,29.99,ENE,59,6.0,7.0,34,0.00,,,0.00,VWS V14.01,2013-04-27 01:10:00,
2013-04-26 20:15:00,61.2,35.4,29.99,ENE,58,2.0,7.0,38,0.00,,,0.00,VWS V14.01,2013-04-27 01:15:00,
2013-04-26 20:20:00,61.6,33.7,29.98,ENE,58,3.0,6.0,35,0.00,,,0.00,VWS V14.01,2013-04-27 01:20:00,
2013-04-26 20:25:00,61.6,32.2,29.98,ENE,58,5.0,7.0,33,0.00,,,0.00,VWS V14.01,2013-04-27 01:25:00,
2013-04-26 20:30:00,61.2,31.9,29.98,ENE,58,5.0,7.0,33,0.00,,,0.00,VWS V14.01,2013-04-27 01:30:00,
2013-04-26 20:35:00,60.9,32.4,29.99,ENE,58,3.0,5.0,34,0.00,,,0.00,VWS V14.01,2013-04-27 01:35:00,
2013-04-26 20:40:00,60.9,30.1,29.99,ENE,58,5.0,5.0,31,0.00,,,0.00,VWS V14.01,2013-04-27 01:40:00,
2013-04-26 20:45:00,60.9,31.6,29.99,ENE,58,5.0,5.0,33,0.00,,,0.00,VWS V14.01,2013-04-27 01:45:00,
2013-04-26 20:50:00,60.5,31.3,29.99,ENE,58,3.0,5.0,33,0.00,,,0.00,VWS V14.01,2013-04-27 01:50:00,
2013-04-26 20:55:00,60.5,30.5,29.99,ENE,58,2.0,5.0,32,0.00,,,0.00,VWS V14.01,2013-04-27 01:55:00,
2013-04-26 21:00:00,60.7,30.7,29.99,ENE,58,3.0,5.0,32,0.00,,,0.00,VWS V14.01,2013-04-27 02:00:00,
2013-04-26 21:05:00,60.9,29.3,30.00,ENE,58,2.0,5.0,30,0.00,,,0.00,VWS V14.01,2013-04-27 02:05:00,
2013-04-26 21:10:00,60.5,32.0,30.00,ENE,58,2.0,5.0,34,0.00,,,0.00,VWS V14.01,2013-04-27 02:10:00,
2013-04-26 21:15:00,60.4,31.9,30.00,ENE,58,2.0,5.0,34,0.00,,,0.00,VWS V14.01,2013-04-27 02:15:00,
2013-04-26 21:20:00,60.1,30.9,29.99,ENE,58,2.0,5.0,33,0.00,,,0.00,VWS V14.01,2013-04-27 02:20:00,
2013-04-26 21:25:00,59.6,31.9,29.99,ENE,58,2.0,5.0,35,0.00,,,0.00,VWS V14.01,2013-04-27 02:25:00,
2013-04-26 21:30:00,59.3,34.4,29.99,ENE,58,3.0,5.0,39,0.00,,,0.00,VWS V14.01,2013-04-27 02:30:00,
2013-04-26 21:35:00,59.3,33.0,30.00,ENE,58,6.0,6.0,37,0.00,,,0.00,VWS V14.01,2013-04-27 02:35:00,
2013-04-26 21:40:00,58.9,35.3,30.00,ENE,58,4.0,6.0,41,0.00,,,0.00,VWS V14.01,2013-04-27 02:40:00,
2013-04-26 21:45:00,58.1,34.5,30.00,NE,56,5.0,6.0,41,0.00,,,0.00,VWS V14.01,2013-04-27 02:45:00,
2013-04-26 21:50:00,57.8,34.9,30.01,NE,56,2.0,5.0,42,0.00,,,0.00,VWS V14.01,2013-04-27 02:50:00,
2013-04-26 21:55:00,57.8,34.3,30.01,NE,56,3.0,5.0,41,0.00,,,0.00,VWS V14.01,2013-04-27 02:55:00,
2013-04-26 22:00:00,57.6,34.7,30.01,NE,56,2.0,5.0,42,0.00,,,0.00,VWS V14.01,2013-04-27 03:00:00,
2013-04-26 22:05:00,57.5,35.2,30.02,SE,141,5.0,5.0,43,0.00,,,0.00,VWS V14.01,2013-04-27 03:05:00,
2013-04-26 22:10:00,57.5,34.6,30.02,SE,141,2.0,7.0,42,0.00,,,0.00,VWS V14.01,2013-04-27 03:10:00,
2013-04-26 22:15:00,56.6,40.2,30.02,SE,141,2.0,7.0,54,0.00,,,0.00,VWS V14.01,2013-04-27 03:15:00,
2013-04-26 22:20:00,55.6,42.8,30.03,SE,141,3.0,5.0,62,0.00,,,0.00,VWS V14.01,2013-04-27 03:20:00,
2013-04-26 22:25:00,55.0,43.5,30.03,SE,141,3.0,5.0,65,0.00,,,0.00,VWS V14.01,2013-04-27 03:25:00,
2013-04-26 22:30:00,54.2,43.5,30.03,SE,141,2.0,5.0,67,0.00,,,0.00,VWS V14.01,2013-04-27 03:30:00,
2013-04-26 22:35:00,54.1,44.2,30.04,SE,141,3.0,5.0,69,0.00,,,0.00,VWS V14.01,2013-04-27 03:35:00,
2013-04-26 22:40:00,54.1,47.1,30.04,SE,141,2.0,5.0,77,0.00,,,0.00,VWS V14.01,2013-04-27 03:40:00,
2013-04-26 22:45:00,53.9,47.9,30.04,South,169,5.0,7.0,80,0.00,,,0.00,VWS V14.01,2013-04-27 03:45:00,
2013-04-26 22:50:00,53.3,47.0,30.04,South,169,3.0,7.0,79,0.00,,,0.00,VWS V14.01,2013-04-27 03:50:00,
2013-04-26 22:55:00,52.8,47.1,30.04,South,169,3.0,7.0,81,0.00,,,0.00,VWS V14.01,2013-04-27 03:55:00,
2013-04-26 23:00:00,52.9,49.5,30.04,South,169,2.0,7.0,88,0.00,,,0.00,VWS V14.01,2013-04-27 04:00:00,
2013-04-26 23:01:00,52.9,49.5,30.04,South,169,2.0,7.0,88,0.00,,,0.00,VWS V14.01,2013-04-27 04:01:00,
2013-04-26 23:06:00,53.1,51.1,30.04,South,169,4.0,5.0,93,0.00,,,0.00,VWS V14.01,2013-04-27 04:06:00,
2013-04-26 23:11:00,52.9,52.3,30.04,South,169,5.0,6.0,98,0.00,,,0.00,VWS V14.01,2013-04-27 04:11:00,
2013-04-26 23:15:00,56.2,40.7,30.03,SE,141,5.0,7.0,56,0.00,,,0.00,VWS V14.01,2013-04-27 04:15:00,
2013-04-26 23:16:00,52.8,52.8,30.03,South,169,2.0,7.0,100,0.00,,,0.00,VWS V14.01,2013-04-27 04:16:00,
2013-04-26 23:21:00,52.6,52.6,30.03,South,169,2.0,5.0,100,0.00,,,0.00,VWS V14.01,2013-04-27 04:21:00,
2013-04-26 23:26:00,52.5,52.5,30.03,South,169,5.0,7.0,100,0.00,,,0.00,VWS V14.01,2013-04-27 04:26:00,
2013-04-26 23:30:00,54.2,43.5,30.04,SE,141,2.0,5.0,67,0.00,,,0.00,VWS V14.01,2013-04-27 04:30:00,
2013-04-26 23:31:00,52.3,52.3,30.03,South,169,2.0,7.0,100,0.00,,,0.00,VWS V14.01,2013-04-27 04:31:00,
2013-04-26 23:36:00,52.2,52.2,30.03,South,169,4.0,5.0,100,0.00,,,0.00,VWS V14.01,2013-04-27 04:36:00,
2013-04-26 23:41:00,51.7,51.7,30.03,South,169,3.0,5.0,100,0.00,,,0.00,VWS V14.01,2013-04-27 04:41:00,
2013-04-26 23:45:00,53.8,48.1,30.04,South,169,5.0,7.0,81,0.00,,,0.00,VWS V14.01,2013-04-27 04:45:00,
2013-04-26 23:46:00,51.6,51.6,30.03,South,169,2.0,5.0,100,0.00,,,0.00,VWS V14.01,2013-04-27 04:46:00,
2013-04-26 23:51:00,51.4,51.4,30.03,South,169,3.0,5.0,100,0.00,,,0.00,VWS V14.01,2013-04-27 04:51:00,
2013-04-26 23:56:00,51.3,51.3,30.03,South,169,3.0,5.0,100,0.00,,,0.00,VWS V14.01,2013-04-27 04:56:00,